Wind_Speed
52 50 49 49 49 47 45 46 44 36 36 38 40 40 38 37 35 32 29 25 25 21 19 18 16 15 12 12 11 10 11 14 15 16 18 19 19 19 17 15 15 15 16 25
46 43 42 41 43 41 41 39 43 35 35 36 37 36 36 38 36 34 33 30 28 26 25 25 23 22 22 20 19 18 19 14 15 16 16 22 21 21 21 19 18 16 10 10
49 46 43 40 38 38 38 37 37 37 36 39 40 40 41 42 41 40 39 37 35 35 34 34 35 33 33 33 33 29 26 25 25 21 16 16 15 15 16 20 18 17 17 11
44 45 46 46 45 44 44 44 46 47 46 44 45 46 46 50 47 45 44 44 46 46 45 47 47 47 45 42 41 38 37 35 33 29 27 26 25 20 19 14 11 8 12 14
43 44 47 48 48 51 52 51 56 55 54 55 54 53 53 54 53 53 52 52 53 52 52 52 54 53 51 50 49 50 47 47 44 43 41 39 36 32 28 24 21 19 15 9
40 43 46 50 49 52 51 58 60 63 59 60 55 55 53 52 53 55 57 57 59 59 59 58 59 57 56 55 54 53 52 49 49 49 48 45 42 42 42 39 34 33 29 26
37 42 44 47 52 53 55 56 60 60 60 58 61 60 60 59 60 61 61 61 59 61 60 60 58 58 57 55 54 52 51 51 49 49 48 46 44 44 37 37 36 30 33 31
36 35 42 44 48 50 50 51 56 56 58 58 61 59 60 61 58 59 59 58 56 58 56 55 54 53 52 50 50 49 48 46 45 43 42 41 40 40 39 36 36 37 32 29
38 35 36 40 43 46 47 48 47 51 52 54 54 55 55 54 52 52 53 53 52 52 52 51 50 49 48 46 44 43 42 42 40 39 38 37 36 35 35 36 34 35 34 34
35 35 32 33 37 39 41 43 43 44 46 46 46 47 48 47 46 47 46 48 48 47 46 44 43 42 41 39 39 38 36 34 32 32 32 31 30 27 26 29 31 30 32 32
29 31 32 29 27 31 33 34 35 35 35 37 38 39 40 40 39 38 39 39 39 38 37 37 36 35 34 34 32 30 30 30 29 30 29 27 26 27 27 27 29 29 30 31
20 22 25 24 20 22 25 25 27 29 27 27 29 30 31 31 31 32 32 31 31 30 30 30 30 29 28 27 26 25 25 25 24 24 24 24 25 27 27 28 30 30 32 35
13 14 16 19 20 17 17 18 19 21 20 20 20 21 22 22 22 21 22 24 25 26 27 27 27 27 26 25 24 22 21 21 22 23 23 23 23 25 27 28 29 33 36 37
12 10 10 12 13 16 14 15 16 16 15 15 14 14 14 14 14 14 14 18 21 22 23 23 25 26 24 24 24 23 22 23 24 24 25 26 27 27 29 30 34 36 39 42
28 18 14 11 12 11 13 13 13 15 14 12 11 11 10 9 10 11 13 15 18 18 17 18 20 21 23 24 25 26 28 28 28 28 29 28 29 31 33 34 36 40 43 47
50 48 26 22 17 17 13 14 15 14 13 14 13 10 11 12 13 15 16 17 16 16 16 16 17 19 22 23 24 25 28 31 30 29 30 31 34 38 39 41 41 45 47 50
48 56 43 27 27 23 22 20 18 18 18 17 17 17 15 14 15 16 18 19 22 21 19 19 17 19 20 24 26 28 29 32 33 35 36 36 37 40 44 47 49 51 53 55
47 45 41 41 27 32 30 30 28 24 21 22 23 23 22 20 18 17 18 19 21 22 22 21 19 21 22 24 28 29 31 33 33 35 40 43 47 47 49 49 53 57 59 62
44 39 34 50 41 28 37 37 34 33 31 29 28 27 28 28 26 25 22 21 24 24 23 24 24 24 27 28 31 33 33 33 37 38 39 45 48 53 55 55 59 62 65 67
40 44 28 51 44 38 30 38 43 42 39 38 37 33 33 34 34 33 33 30 27 30 30 32 32 31 34 33 32 34 36 34 37 42 45 48 50 55 57 59 60 65 68 72
59 41 40 34 29 39 31 21 34 40 46 48 49 45 44 42 39 37 37 37 35 34 38 38 39 32 38 37 39 37 38 40 41 45 48 49 51 54 59 64 65 71 71 76
63 52 49 33 29 38 26 37 27 25 32 45 54 57 58 58 56 51 46 44 41 38 38 41 48 39 42 41 40 41 41 44 47 48 48 50 54 55 62 68 69 73 75 80
67 63 47 40 29 35 37 25 37 28 30 33 31 41 58 65 64 62 60 57 51 49 46 48 56 52 52 51 48 46 45 46 49 52 51 51 57 60 63 71 72 77 80 83
69 66 64 48 36 34 26 33 35 43 35 42 42 37 38 48 62 66 66 63 63 60 57 60 60 61 59 58 57 56 52 50 51 54 57 59 61 63 64 72 74 78 82 87
70 70 69 65 54 43 35 31 42 44 51 40 44 39 40 44 50 57 67 69 66 65 70 70 67 62 60 63 63 61 57 56 56 58 61 63 66 66 66 72 76 81 86 89
72 70 71 73 67 45 40 43 42 48 53 42 48 42 43 46 49 52 55 68 75 73 72 71 70 70 65 65 65 62 63 63 62 64 65 66 69 69 67 73 79 83 88 91
72 73 73 72 67 54 49 48 54 51 53 45 50 48 42 44 48 49 54 57 68 74 74 73 74 74 75 74 70 67 64 67 67 68 70 73 74 72 69 74 81 85 90 93
Wind_Direction
33 39 49 58 68 75 80 89 92 98 104 110 112 114 119 120 121 120 118 120 120 116 116 108 105 106 111 117 110 103 125 147 144 145 137 127 125 120 122 131 134 140 158 169
34 37 44 50 59 65 75 81 90 96 102 106 109 111 111 107 104 104 106 103 98 100 98 97 97 98 94 94 95 102 108 110 113 119 122 117 125 123 115 109 111 111 120 157
30 37 46 55 64 72 78 84 89 94 96 96 98 99 97 97 100 98 94 95 97 99 100 101 98 95 93 92 94 93 91 95 94 91 97 99 107 117 125 127 122 125 125 135
34 45 52 58 64 70 76 81 84 83 86 91 92 92 92 90 88 95 100 99 100 99 97 95 93 92 90 90 91 91 88 88 88 88 86 89 87 82 84 79 94 115 142 152
38 47 54 61 66 71 77 82 85 84 82 81 80 83 86 92 98 96 98 97 97 95 94 93 92 89 87 86 85 85 85 84 84 83 81 79 78 77 77 81 85 85 81 97
47 51 58 64 66 71 75 79 77 78 79 83 83 86 90 96 98 97 95 95 95 93 91 89 88 87 86 84 83 83 83 82 80 79 79 78 77 77 79 79 80 81 74 74
52 61 64 68 70 73 75 77 83 85 87 89 91 92 92 89 90 91 91 90 87 87 85 85 84 84 85 85 86 85 84 83 83 81 81 83 82 80 83 75 76 82 68 68
32 57 67 73 75 74 75 78 82 84 86 85 83 83 82 82 83 84 85 84 82 83 84 84 83 81 81 79 80 80 79 76 78 77 73 71 68 66 64 62 64 61 59 47
26 34 52 64 68 71 72 74 74 79 80 80 80 82 83 83 84 84 83 84 84 84 83 83 82 82 81 80 77 76 75 73 71 67 66 67 62 58 56 54 52 44 41 39
20 26 34 51 61 63 64 68 69 66 72 75 77 79 81 81 82 81 79 81 80 80 81 81 81 82 81 80 78 78 77 75 73 70 65 63 58 56 54 54 48 39 31 27
11 21 25 33 49 61 62 64 67 70 71 74 73 74 78 81 80 78 79 77 79 76 74 74 73 73 71 70 66 64 62 59 55 53 51 46 42 35 33 30 29 24 17 15
12 12 18 25 25 42 56 59 61 62 63 66 69 73 76 77 75 76 74 72 72 71 69 67 64 63 61 59 56 52 51 47 43 39 33 29 26 18 16 15 12 5 1 0
10 5 5 9 12 9 23 38 47 52 53 58 64 71 74 74 73 72 67 63 62 60 58 58 58 56 52 48 44 40 36 32 26 20 18 15 12 8 8 7 0 357 352 347
321 338 340 340 345 347 339 348 2 14 26 38 46 55 64 64 58 54 49 42 44 46 46 41 40 40 33 29 28 28 24 22 17 9 7 3 0 357 356 354 351 353 349 346
354 311 298 300 300 303 315 312 319 335 341 349 359 3 18 29 28 14 14 22 26 33 34 29 29 31 23 19 18 15 11 13 9 4 0 355 350 347 347 347 346 346 345 342
9 2 320 283 279 285 271 285 291 300 305 310 315 323 333 340 345 351 352 355 8 10 7 12 13 17 13 7 10 6 359 359 357 355 352 348 347 344 342 341 340 339 340 340
3 355 356 325 274 266 273 266 270 283 288 289 293 299 305 315 324 333 337 339 342 348 349 350 358 358 359 358 0 359 357 354 347 343 343 344 341 341 340 339 337 336 336 337
350 3 358 350 305 265 258 264 265 259 267 280 282 284 288 297 301 307 313 317 320 327 333 331 338 348 350 350 347 347 352 349 344 340 339 340 336 337 336 335 333 333 333 335
334 356 355 358 346 293 258 254 257 262 264 263 268 274 277 286 290 294 298 301 305 313 318 320 322 325 328 330 335 336 341 345 343 337 334 337 335 333 334 331 332 332 331 333
326 331 353 358 353 340 274 258 249 256 258 261 264 265 268 274 279 285 289 294 296 301 307 312 310 315 316 317 320 328 332 336 338 336 331 331 334 332 331 331 331 331 330 332
323 322 329 352 360 0 347 289 277 266 259 263 266 265 265 265 265 268 273 278 284 290 295 300 300 313 308 315 317 318 324 329 329 329 330 327 331 332 329 329 330 330 330 330
317 323 322 328 354 353 348 4 2 340 310 287 276 274 273 273 272 267 263 270 273 272 277 285 284 297 299 305 311 311 314 320 323 322 326 325 325 327 328 328 327 326 328 329
310 313 320 312 329 342 351 333 353 342 346 336 323 296 281 275 273 273 272 273 272 272 273 273 274 290 292 296 301 305 307 312 316 318 321 322 324 323 325 327 324 324 326 328
298 304 312 304 313 320 332 336 335 343 328 333 329 316 299 283 275 271 269 270 273 275 271 268 273 282 288 293 295 300 304 308 310 313 316 320 319 321 322 325 323 323 325 326
293 297 300 301 301 303 317 322 333 325 341 325 333 322 309 295 279 271 266 266 268 267 266 272 275 282 285 285 289 294 299 302 306 309 312 314 317 316 320 323 321 321 323 325
288 290 289 297 309 291 304 318 325 324 325 326 326 324 307 299 294 272 262 260 259 264 268 270 274 278 279 279 284 288 294 298 302 303 307 309 312 313 316 318 319 320 321 324
284 281 285 290 299 289 300 312 312 319 324 324 318 322 314 305 298 296 273 259 258 259 262 266 269 273 278 281 282 283 288 293 297 299 301 305 308 310 313 315 316 318 320 322
Height
10385 10373 10363 10353 10344 10338 10337 10330 10330 10337 10339 10340 10343 10346 10350 10353 10356 10360 10368 10376 10381 10386 10392 10397 10400 10403 10406 10408 10409 10413 10417 10420 10420 10421 10425 10427 10430 10433 10435 10438 10441 10445 10450 10453
10407 10396 10386 10376 10368 10362 10357 10357 10348 10356 10358 10358 10357 10360 10361 10362 10366 10372 10378 10383 10388 10394 10397 10401 10405 10409 10410 10413 10415 10418 10421 10424 10425 10429 10433 10432 10435 10438 10440 10444 10447 10451 10455 10459
10429 10418 10408 10397 10390 10383 10378 10375 10372 10371 10373 10372 10371 10373 10373 10375 10379 10382 10387 10393 10398 10401 10406 10409 10410 10414 10416 10418 10421 10425 10427 10429 10430 10435 10438 10438 10441 10443 10445 10447 10450 10453 10457 10462
10448 10438 10428 10419 10412 10405 10397 10393 10388 10388 10388 10389 10388 10386 10387 10385 10390 10396 10401 10405 10409 10413 10416 10416 10420 10422 10425 10429 10430 10432 10434 10437 10439 10442 10444 10445 10447 10450 10452 10455 10456 10459 10462 10464
10468 10457 10448 10439 10432 10424 10418 10415 10405 10407 10408 10403 10400 10401 10402 10404 10408 10414 10416 10419 10421 10425 10427 10428 10430 10434 10436 10438 10441 10442 10446 10449 10452 10451 10453 10454 10455 10458 10461 10463 10465 10467 10469 10472
10485 10476 10468 10459 10454 10445 10442 10430 10428 10424 10426 10422 10424 10422 10427 10427 10429 10429 10430 10437 10436 10438 10439 10442 10442 10447 10449 10450 10452 10454 10457 10461 10460 10461 10462 10464 10466 10468 10468 10472 10475 10475 10478 10479
10504 10493 10486 10479 10473 10467 10461 10457 10451 10448 10450 10449 10445 10447 10447 10449 10448 10447 10449 10450 10453 10449 10452 10453 10457 10459 10461 10464 10466 10469 10471 10471 10473 10474 10475 10476 10478 10479 10481 10483 10482 10483 10486 10486
10523 10512 10503 10496 10490 10486 10483 10479 10472 10473 10467 10465 10462 10462 10461 10462 10466 10465 10465 10465 10467 10464 10466 10468 10470 10472 10474 10476 10477 10478 10480 10481 10482 10484 10484 10485 10485 10485 10486 10487 10487 10487 10489 10488
10536 10529 10520 10513 10509 10504 10501 10498 10496 10490 10487 10484 10481 10480 10480 10481 10484 10484 10482 10481 10482 10481 10481 10481 10483 10485 10486 10487 10488 10488 10489 10491 10492 10492 10492 10492 10492 10492 10490 10490 10489 10488 10489 10489
10547 10542 10536 10530 10524 10520 10516 10514 10511 10508 10504 10502 10502 10500 10497 10498 10498 10497 10497 10495 10495 10496 10495 10495 10496 10496 10496 10497 10498 10499 10500 10500 10501 10499 10499 10499 10499 10499 10498 10495 10494 10493 10489 10487
10554 10551 10549 10544 10540 10534 10531 10528 10526 10523 10521 10518 10516 10515 10513 10513 10512 10511 10510 10509 10508 10508 10507 10507 10507 10506 10505 10504 10505 10505 10504 10503 10503 10502 10502 10501 10500 10499 10498 10496 10493 10491 10489 10484
10562 10559 10556 10553 10552 10548 10542 10540 10537 10534 10533 10530 10528 10526 10525 10524 10523 10522 10521 10520 10519 10519 10518 10517 10516 10515 10513 10512 10511 10510 10509 10507 10506 10506 10504 10502 10500 10497 10495 10492 10488 10486 10482 10479
10564 10563 10562 10559 10557 10555 10553 10549 10546 10544 10543 10541 10539 10536 10534 10532 10531 10530 10529 10528 10526 10525 10524 10523 10522 10520 10518 10517 10515 10513 10511 10510 10508 10507 10504 10502 10500 10496 10493 10489 10486 10481 10477 10473
10567 10564 10563 10562 10560 10558 10556 10554 10552 10550 10548 10546 10545 10543 10541 10538 10536 10535 10533 10532 10531 10530 10528 10526 10524 10523 10520 10519 10517 10515 10512 10510 10507 10505 10502 10499 10496 10492 10488 10485 10480 10476 10471 10466
10568 10565 10562 10561 10560 10558 10558 10557 10555 10553 10552 10549 10547 10545 10543 10542 10540 10538 10537 10535 10534 10533 10531 10528 10526 10524 10522 10520 10517 10514 10511 10509 10506 10503 10499 10496 10492 10487 10483 10478 10473 10468 10463 10456
10570 10566 10561 10558 10556 10556 10555 10555 10555 10554 10552 10551 10549 10547 10545 10544 10542 10541 10539 10537 10536 10534 10532 10529 10527 10525 10522 10519 10517 10514 10510 10507 10504 10501 10497 10492 10487 10482 10478 10472 10466 10460 10454 10447
10570 10564 10559 10553 10551 10551 10551 10550 10551 10552 10552 10550 10548 10546 10544 10543 10542 10541 10539 10538 10536 10534 10531 10529 10527 10524 10521 10518 10514 10512 10508 10505 10501 10496 10492 10487 10482 10476 10470 10464 10457 10451 10443 10435
10572 10563 10557 10553 10545 10543 10543 10545 10544 10543 10544 10545 10545 10544 10541 10540 10538 10538 10537 10535 10534 10532 10530 10527 10525 10522 10519 10516 10513 10509 10505 10501 10496 10491 10486 10480 10474 10468 10462 10455 10447 10439 10431 10422
10572 10564 10555 10550 10543 10536 10535 10535 10537 10538 10538 10536 10536 10537 10538 10537 10535 10533 10532 10531 10530 10528 10526 10524 10521 10518 10514 10512 10508 10504 10500 10495 10490 10485 10479 10473 10467 10460 10453 10445 10437 10428 10418 10408
10566 10563 10552 10546 10538 10530 10524 10525 10527 10529 10529 10529 10529 10529 10528 10528 10528 10529 10527 10525 10524 10522 10521 10519 10515 10512 10508 10504 10501 10497 10493 10488 10483 10478 10472 10465 10459 10450 10443 10434 10426 10416 10406 10396
10559 10556 10553 10545 10539 10533 10523 10519 10521 10521 10521 10521 10520 10522 10520 10519 10517 10517 10518 10517 10517 10516 10513 10511 10506 10504 10501 10497 10493 10489 10485 10481 10476 10470 10464 10456 10449 10441 10433 10424 10414 10404 10393 10383
10550 10549 10546 10542 10536 10530 10525 10519 10516 10518 10517 10514 10512 10511 10509 10509 10508 10506 10506 10505 10508 10507 10503 10500 10493 10492 10490 10488 10484 10480 10476 10471 10466 10460 10454 10447 10440 10432 10423 10413 10402 10391 10381 10371
10538 10538 10538 10535 10529 10523 10520 10517 10515 10513 10510 10506 10500 10497 10496 10494 10494 10495 10496 10497 10496 10494 10495 10489 10476 10480 10479 10476 10474 10470 10466 10460 10455 10450 10444 10437 10429 10421 10412 10402 10390 10379 10368 10358
10525 10525 10526 10525 10522 10518 10514 10509 10506 10503 10500 10495 10489 10484 10480 10476 10476 10479 10480 10482 10483 10485 10481 10467 10466 10467 10468 10465 10462 10459 10454 10449 10444 10438 10432 10426 10419 10410 10401 10391 10379 10367 10356 10344
10514 10512 10510 10510 10514 10509 10502 10498 10495 10491 10488 10483 10479 10473 10468 10462 10457 10457 10461 10463 10466 10464 10454 10456 10456 10455 10455 10453 10449 10446 10443 10438 10433 10427 10421 10414 10408 10400 10390 10379 10368 10356 10344 10332
10502 10498 10492 10491 10499 10495 10489 10485 10481 10477 10475 10471 10467 10460 10455 10448 10440 10437 10435 10440 10437 10439 10442 10443 10443 10441 10439 10437 10435 10433 10429 10425 10420 10415 10409 10402 10396 10388 10379 10368 10356 10344 10331 10319
10491 10480 10475 10475 10480 10479 10474 10472 10470 10465 10461 10458 10452 10447 10440 10434 10430 10424 10419 10415 10415 10419 10424 10425 10426 10427 10425 10423 10421 10418 10417 10412 10407 10401 10396 10390 10383 10376 10366 10355 10343 10331 10318 10305